RADCAL 1 22698U 93041A 10065.38351289 .00000240 00000-0 96925-4 0 5543 2 22698 089.5449 013.3699 0089116 179.9191 180.2047 14.22833248866550 STRV 1A 1 23125U 94034B 10067.63514343 +.00006351 +00000-0 +82467-3 0 05706 2 23125 007.3427 303.4932 6844943 215.1173 069.9091 02.86467344147000 STRV 1B 1 23126U 94034C 10064.07162177 +.00000937 +00000-0 +23613-3 0 05876 2 23126 007.3748 249.3956 6783066 323.5376 005.3091 02.92898273149291 REX 2 1 23814U 96014A 10067.74974189 +.00000038 +00000-0 +11676-4 0 09223 2 23814 090.1530 277.0854 0022482 161.3785 198.8225 14.23885967727194 COSMOS 2346 1 24953U 97052A 10066.26101149 .00000038 00000-0 21575-4 0 7312 2 24953 082.9225 118.8309 0041094 110.8067 249.7498 13.79439132626890 ARGOS 1 25634U 99008A 10066.13237052 -.00000263 00000-0 -10394-3 0 9524 2 25634 098.9746 112.0818 0009515 279.4206 080.5876 14.18920966571335 HELIOS 1B 1 25977U 99064A 10067.64421350 +.00000143 +00000-0 +27584-4 0 09388 2 25977 098.3452 082.7553 0001299 153.5175 206.6085 14.77779998550983 MTI 1 26102U 00014A 10066.43464715 .00001036 00000-0 63726-4 0 4985 2 26102 097.2474 221.7130 0018584 280.8062 138.6843 15.11998840549179 STRV 1C 1 26610U 00072C 10062.56055474 +.00000335 +00000-0 +10000-3 0 00399 2 26610 005.9683 197.2685 7343498 237.3540 031.3423 02.03454298069107 OFEQ 5 1 27434U 02025A 10066.21287037 .00002011 00000-0 10258-3 0 952 2 27434 143.4658 066.7422 0025076 050.3873 158.4769 15.06062583432955 MIDSTAR 1 1 30773U 07006B 10067.96075933 -.00000304 +00000-0 +00000-0 0 08525 2 30773 046.0358 026.6926 0008379 183.6474 176.4471 15.24013173167123 CFESAT 1 30777U 07006F 10066.05323482 .00000732 00000-0 56413-4 0 7833 2 30777 035.4336 309.3643 0004167 341.8997 018.1571 15.02994049164622 NFIRE 1 31140U 07014A 10065.85779282 .00011583 00000-0 12810-3 0 748 2 31140 048.2272 228.9675 0048476 240.0571 119.5556 15.61971907163247 OFEQ 7 1 31601U 07025A 10066.07999419 .00003524 00000-0 12826-3 0 904 2 31601 141.7485 238.6239 0068642 098.7718 026.8865 15.20473787152447 SAR LUPE 2 1 31797U 07030A 10066.08611101 .00001311 00000-0 53024-4 0 9925 2 31797 098.1428 264.6309 0013709 025.0055 121.0509 15.26776604149251 SAR LUPE 3 1 32283U 07053A 10065.75437106 .00001807 00000-0 71727-4 0 6247 2 32283 098.0923 324.0616 0010731 124.8704 320.9866 15.26819259130715 SAR LUPE 4 1 32750U 08014A 10066.07574021 .00002120 00000-0 83351-4 0 1710 2 32750 098.1428 195.0858 0019642 237.9583 239.8066 15.26831842108212 SAR LUPE 5 1 33244U 08036A 10066.07478394 .00001855 00000-0 73357-4 0 8085 2 33244 098.1156 322.9125 0019420 286.9074 184.5506 15.26821056 90457